Location: Morosaglia
(42.4360°N, 9.3069°E)
Time: 18:44:45
(UTC+00:00)

Cosmos 1869 - Pass Details

Date: 07 June 2020
Orbit: 519 x 563 km, 82.5° (Epoch: 05 July)

Event Time Altitude Azimuth Distance (km) Brightness Sun altitude
Rises 01:25:43 0° 351° (N) 2,657 7.6 -18.8°
Reaches altitude 10° 01:27:51 10° 351° (N) 1,762 6.6 -18.6°
Maximum altitude 01:31:43 84° 264° (W) 528 3.1 -18.2°
Enters shadow 01:33:02 40° 178° (S) 777 3.6 -18.1°
